غائم جزئيا مع بعض السحب الرقيقة
مختلط مع زخات المطر
غائم مع سقوط امطار خفيفة
غالبا غائم
غائم جزئيا
غائم جزئيا مع بعض السحب الرقيقة
صافي مع بعض الغيوم المنخفضة والسحب الرقيقة
غالبا غائم مع سحب رقيقة
غالبا غائم مع سحب رقيقة
(°C)
21°
21°
21°
21°
21°
21°
21°
21°
20°
20°
19°
19°
18°
18°
17°
17°
16°
16°
(°C)
19°
19°
19°
19°
19°
18°
17°
16°
15°
جنوب غربي
جنوب غربي
جنوب غربي
جنوب جنوب غربي
غرب جنوب غربي
جنوب غربي
جنوب جنوب غربي
جنوب
جنوب
(km/h)
14-43
14-43
13-40
11-36
9-32
7-27
6-19
6-15
6-15
(ميليمتر)
0
0.5
1.6
0
0
0
0
0
0
(%)
18
65
65
7
13
19
6
0
0

مستوى ارتفاع الشمس

/ 41.6°
sun-icon
UV 4
05:02
21:43
قمر التربيع الأول (96°)
14:43
00:13

متر للوبك (EDHL)

الوقت الشروط درجة الحرارة/
نقطة الندى
رياح مجال رؤية حالة الطقس غيوم الضغط تغيير خام
VFR 22°C / 9°C 5kt 9700m - Clouds and Visibility OK 1012 - EDHL 141350Z VRB05KT CAVOK 22/09 Q1012
VFR 23°C / 11°C 6kt Gust 16kt 9700m - Clouds and Visibility OK 1012 - EDHL 141320Z VRB06G16KT CAVOK 23/11 Q1012
VFR 21°C / 10°C 6kt 9700m - Clouds and Visibility OK 1012 - EDHL 141250Z VRB06KT CAVOK 21/10 Q1012
VFR 20°C / 9°C 5kt 9700m - Clouds and Visibility OK 1012 - EDHL 141220Z VRB05KT CAVOK 20/09 Q1012
VFR 21°C / 10°C 5kt 9700m - Broken Clouds 4800ft 1012 - EDHL 141150Z VRB05KT 9999 BKN048 21/10 Q1012
VFR 21°C / 12°C 4kt 9700m - Broken Clouds 4500ft 1012 - EDHL 141120Z VRB04KT 9999 BKN045 21/12 Q1012
VFR 20°C / 10°C 5kt 9700m - Broken Clouds 4100ft 1012 - EDHL 141050Z VRB05KT 9999 BKN041 20/10 Q1012
VFR 20°C / 10°C 5kt 9700m - Scattered Clouds 4000ft 1012 - EDHL 141020Z VRB05KT 9999 SCT040 20/10 Q1012
VFR 20°C / 11°C 5kt 9700m - Few Clouds 3600ft
Broken Clouds 4300ft
1013 - EDHL 140950Z VRB05KT 9999 FEW036 BKN043 20/11 Q1013
VFR 19°C / 10°C 5kt 9700m - Broken Clouds 3400ft
Broken Clouds 4600ft
1013 - EDHL 140920Z VRB05KT 9999 BKN034 BKN046 19/10 Q1013
VFR 19°C / 11°C 6kt 9700m - Few Clouds 3000ft 1013 - EDHL 140850Z VRB06KT 9999 FEW030 19/11 Q1013
MVFR 18°C / 11°C 6kt 9700m - Broken Clouds 2800ft
Broken Clouds 3400ft
1013 - EDHL 140820Z VRB06KT 9999 BKN028 BKN034 18/11 Q1013
MVFR 17°C / 11°C 5kt 9700m - Broken Clouds 2700ft 1013 - EDHL 140750Z VRB05KT 9999 BKN027 17/11 Q1013
MVFR 17°C / 11°C 5kt 9700m - Broken Clouds 2500ft 1012 - EDHL 140720Z VRB05KT 9999 BKN025 17/11 Q1012
VFR 17°C / 11°C 4kt 9700m - Few Clouds 2300ft 1012 - EDHL 140650Z VRB04KT 9999 FEW023 17/11 Q1012
VFR 16°C / 11°C 5kt 9700m - Clouds and Visibility OK 1013 - EDHL 140620Z VRB05KT CAVOK 16/11 Q1013
VFR 15°C / 11°C 3kt 9700m - Clouds and Visibility OK 1013 - EDHL 140550Z VRB03KT CAVOK 15/11 Q1013
VFR 14°C / 12°C 2kt 9700m - Clouds and Visibility OK 1012 - EDHL 140520Z VRB02KT CAVOK 14/12 Q1012
VFR 13°C / 12°C 3kt 9700m - Clouds and Visibility OK 1012 - EDHL 140450Z VRB03KT CAVOK 13/12 Q1012
VFR 13°C / 11°C 2kt 9700m - Clouds and Visibility OK 1012 - EDHL 140420Z VRB02KT CAVOK 13/11 Q1012
VFR 12°C / 11°C 200º 4kt 9700m - Clouds and Visibility OK 1012 - EDHL 140350Z 20004KT CAVOK 12/11 Q1012
VFR 12°C / 11°C 190º variable 120º to 280º 4kt 9700m - Clear 1012 - EDHL 140320Z AUTO 19004KT 120V280 9999 // NCD 12/11 Q1012
VFR 12°C / 11°C 2kt 9700m - Clear 1012 - EDHL 140250Z AUTO VRB02KT 9999 // NCD 12/11 Q1012
VFR 12°C / 11°C 2kt 9700m - Clear 1012 - EDHL 140220Z AUTO VRB02KT 9999 // NCD 12/11 Q1012

VFR

22°C / 9°C

[أكثر]
رياح 5kt
مجال رؤية 9700m
حالة الطقس -
غيوم Clouds and Visibility OK
الضغط 1012
تغيير -
خام EDHL 141350Z VRB05KT CAVOK 22/09 Q1012

VFR

23°C / 11°C

[أكثر]
رياح 6kt Gust 16kt
مجال رؤية 9700m
حالة الطقس -
غيوم Clouds and Visibility OK
الضغط 1012
تغيير -
خام EDHL 141320Z VRB06G16KT CAVOK 23/11 Q1012

VFR

21°C / 10°C

[أكثر]
رياح 6kt
مجال رؤية 9700m
حالة الطقس -
غيوم Clouds and Visibility OK
الضغط 1012
تغيير -
خام EDHL 141250Z VRB06KT CAVOK 21/10 Q1012

VFR

20°C / 9°C

[أكثر]
رياح 5kt
مجال رؤية 9700m
حالة الطقس -
غيوم Clouds and Visibility OK
الضغط 1012
تغيير -
خام EDHL 141220Z VRB05KT CAVOK 20/09 Q1012

VFR

21°C / 10°C

[أكثر]
رياح 5kt
مجال رؤية 9700m
حالة الطقس -
غيوم Broken Clouds 4800ft
الضغط 1012
تغيير -
خام EDHL 141150Z VRB05KT 9999 BKN048 21/10 Q1012

VFR

21°C / 12°C

[أكثر]
رياح 4kt
مجال رؤية 9700m
حالة الطقس -
غيوم Broken Clouds 4500ft
الضغط 1012
تغيير -
خام EDHL 141120Z VRB04KT 9999 BKN045 21/12 Q1012

VFR

20°C / 10°C

[أكثر]
رياح 5kt
مجال رؤية 9700m
حالة الطقس -
غيوم Broken Clouds 4100ft
الضغط 1012
تغيير -
خام EDHL 141050Z VRB05KT 9999 BKN041 20/10 Q1012

VFR

20°C / 10°C

[أكثر]
رياح 5kt
مجال رؤية 9700m
حالة الطقس -
غيوم Scattered Clouds 4000ft
الضغط 1012
تغيير -
خام EDHL 141020Z VRB05KT 9999 SCT040 20/10 Q1012

VFR

20°C / 11°C

[أكثر]
رياح 5kt
مجال رؤية 9700m
حالة الطقس -
غيوم Few Clouds 3600ft
Broken Clouds 4300ft
الضغط 1013
تغيير -
خام EDHL 140950Z VRB05KT 9999 FEW036 BKN043 20/11 Q1013

VFR

19°C / 10°C

[أكثر]
رياح 5kt
مجال رؤية 9700m
حالة الطقس -
غيوم Broken Clouds 3400ft
Broken Clouds 4600ft
الضغط 1013
تغيير -
خام EDHL 140920Z VRB05KT 9999 BKN034 BKN046 19/10 Q1013

VFR

19°C / 11°C

[أكثر]
رياح 6kt
مجال رؤية 9700m
حالة الطقس -
غيوم Few Clouds 3000ft
الضغط 1013
تغيير -
خام EDHL 140850Z VRB06KT 9999 FEW030 19/11 Q1013

MVFR

18°C / 11°C

[أكثر]
رياح 6kt
مجال رؤية 9700m
حالة الطقس -
غيوم Broken Clouds 2800ft
Broken Clouds 3400ft
الضغط 1013
تغيير -
خام EDHL 140820Z VRB06KT 9999 BKN028 BKN034 18/11 Q1013

MVFR

17°C / 11°C

[أكثر]
رياح 5kt
مجال رؤية 9700m
حالة الطقس -
غيوم Broken Clouds 2700ft
الضغط 1013
تغيير -
خام EDHL 140750Z VRB05KT 9999 BKN027 17/11 Q1013

MVFR

17°C / 11°C

[أكثر]
رياح 5kt
مجال رؤية 9700m
حالة الطقس -
غيوم Broken Clouds 2500ft
الضغط 1012
تغيير -
خام EDHL 140720Z VRB05KT 9999 BKN025 17/11 Q1012

VFR

17°C / 11°C

[أكثر]
رياح 4kt
مجال رؤية 9700m
حالة الطقس -
غيوم Few Clouds 2300ft
الضغط 1012
تغيير -
خام EDHL 140650Z VRB04KT 9999 FEW023 17/11 Q1012

VFR

16°C / 11°C

[أكثر]
رياح 5kt
مجال رؤية 9700m
حالة الطقس -
غيوم Clouds and Visibility OK
الضغط 1013
تغيير -
خام EDHL 140620Z VRB05KT CAVOK 16/11 Q1013

VFR

15°C / 11°C

[أكثر]
رياح 3kt
مجال رؤية 9700m
حالة الطقس -
غيوم Clouds and Visibility OK
الضغط 1013
تغيير -
خام EDHL 140550Z VRB03KT CAVOK 15/11 Q1013

VFR

14°C / 12°C

[أكثر]
رياح 2kt
مجال رؤية 9700m
حالة الطقس -
غيوم Clouds and Visibility OK
الضغط 1012
تغيير -
خام EDHL 140520Z VRB02KT CAVOK 14/12 Q1012

VFR

13°C / 12°C

[أكثر]
رياح 3kt
مجال رؤية 9700m
حالة الطقس -
غيوم Clouds and Visibility OK
الضغط 1012
تغيير -
خام EDHL 140450Z VRB03KT CAVOK 13/12 Q1012

VFR

13°C / 11°C

[أكثر]
رياح 2kt
مجال رؤية 9700m
حالة الطقس -
غيوم Clouds and Visibility OK
الضغط 1012
تغيير -
خام EDHL 140420Z VRB02KT CAVOK 13/11 Q1012

VFR

12°C / 11°C

[أكثر]
رياح 200º 4kt
مجال رؤية 9700m
حالة الطقس -
غيوم Clouds and Visibility OK
الضغط 1012
تغيير -
خام EDHL 140350Z 20004KT CAVOK 12/11 Q1012

VFR

12°C / 11°C

[أكثر]
رياح 190º variable 120º to 280º 4kt
مجال رؤية 9700m
حالة الطقس -
غيوم Clear
الضغط 1012
تغيير -
خام EDHL 140320Z AUTO 19004KT 120V280 9999 // NCD 12/11 Q1012

VFR

12°C / 11°C

[أكثر]
رياح 2kt
مجال رؤية 9700m
حالة الطقس -
غيوم Clear
الضغط 1012
تغيير -
خام EDHL 140250Z AUTO VRB02KT 9999 // NCD 12/11 Q1012

VFR

12°C / 11°C

[أكثر]
رياح 2kt
مجال رؤية 9700m
حالة الطقس -
غيوم Clear
الضغط 1012
تغيير -
خام EDHL 140220Z AUTO VRB02KT 9999 // NCD 12/11 Q1012

انقر للوبك (EDHL)

From till


From till Wind 200º 7kt. Visibility 9700m. Nil Significant Cloud.
With 30% probability, Temporarly from till Showers Rain . Broken Clouds 4000ft.
Becoming from till

خام: TAF EDHL 141100Z 1412/1421 20007KT CAVOK PROB30 TEMPO 1415/1420 SHRA BKN040CB BECMG 1419/1421 VRB03KT

rainNOW: هطول أمطار الآن فيلوبك والمناطق المحيطة (نصف قطر 25 كم)

0.0 ميليمتر
0.0 ميليمتر
0.0 ميليمتر
0.0 ميليمتر
0.2 ميليمتر
0.8 ميليمتر
0.1 ميليمتر
0.1 ميليمتر
0.0 ميليمتر
0.0 ميليمتر
0.0 ميليمتر
0.0 ميليمتر

رادار وهطول الأمطار التنبؤ الآني للوبك

رذاذ
ضوء
معتدل
ثقيل
ثقيل جدا
وابل

مؤشر المكان يشير الى لوبك. تُظهر هذه الرسوم المتحركة رادار هطول الأمطار للنطاق الزمني المحدد ، بالإضافة إلى توقعات ٪ 1 $ dh . تشير الصلبان البرتقالية إلى البرق. البيانات مقدمة من nowcast.de (متوفرة في الولايات المتحدة الأمريكية وأوروبا وأستراليا). رذاذ أو تساقط ثلوج خفيف قد يكون غير مرئي للرادار. كثافة هطول الأمطار لها رموز لونية تتراوح من الفيروز إلى الأحمر.

صور الأقمار الصناعية الملتقطة و الأمطار حالياً للوبك, ألمانيا

المؤشر يدل على موقع لوبك. [أكثر]

تجمع صورة الأقمار الصناعية في الوقت الفعلي بين الضوء المرئي أثناء النهار والأشعة تحت الحمراء أثناء الليل. لا تبدو الصورة مظلمة ليلاً، لأن الأشعة تحت الحمراء يمكنها الكشف عن الاختلافات في درجة الحرارة. لسوء الحظ ، يصعب التمييز بين السحب المنخفضة والضباب ودرجات حرارة الأرض ، وبالتالي يمكن أن تكون الصور غير مرئية تقريبًا أثناء الليل. يتم تحديث صور الأقمار الصناعية Meteosat الخاصة بأوروبا في الوقت الفعلي كل 5 دقائق، بينما يتم تحديث صور GOES-16 / GOES-17 (أمريكا الشمالية والجنوبية) و هيماواري (آسيا) كل 10 دقائق.

يقدر هطول الأمطار من الرادار والأقمار الصناعية. تقديرات هطول الأمطار من الأقمار الصناعية أقل دقة في الليل منها أثناء النهار.

© 2024 meteoblue, NOAA Satellites GOES-16 and EUMETSAT. بيانات البرق مقدمة من nowcast.

العودة الى الأعلى
×
مرحبًا ،
يبدو أنك تستخدم مانع الإعلانات.

يُعد الإعلان أمرًا ضروريًا للحفاظ على موقعنا المجاني بتفاصيل ودقة فريدة.

يُرجى إضافة www.meteoblue.com إلى القائمة البيضاء في أداة منع الإعلانات أو التفكير في شراء أحد منتجاتنا:

لديك اشتراك بالفعل؟
ثم يرجى تسجيل الدخول .